Oakland, CA

2:48 AM PDT on August 18, 2017 (GMT -0700)
Metro Oakland International

Weather History for KOAK - March, 2013

Change the Weather History Date:

Wednesday, March 6, 2013

  Actual Average Record
Temperature  
Mean Temperature 51 °F 54 °F  
Max Temperature 58 °F 61 °F 78 °F (1953)
Min Temperature 44 °F 46 °F 35 °F (1956)
Degree Days  
Heating Degree Days 14 11  
Month to date heating degree days 56 71  
Since 1 July heating degree days 1962 2093  
Cooling Degree Days 0 0  
Month to date cooling degree days 0 0  
Year to date cooling degree days 0 0  
Growing Degree Days 2 (Base 50)    
Moisture  
Dew Point 46 °F    
Average Humidity 72    
Maximum Humidity 89    
Minimum Humidity 55    
Precipitation  
Precipitation 0.06 in 0.10 in 0.98 in (2002)
Month to date precipitation 0.14 0.72  
Year to date precipitation 0.95 8.66  
Since 1 July precipitation 11.94  
Sea Level Pressure  
Sea Level Pressure 30.01 in    
Wind  
Wind Speed 12 mph (SW)    
Max Wind Speed 31 mph    
Max Gust Speed 38 mph    
Visibility 10 miles    
Events Rain    
T = Trace of Precipitation, MM = Missing Value Source: NWS Daily Summary

Daily Weather History Graph

Daily Weather History Graph

Search for Another Location

Airport or City:

Trip Planner

Search our weather history database for the weather conditions in past years. The results will help you decide how hot, cold, wet, or windy it might be!

Date:

Astronomy

Mar. 06, 2013 Rise Set
Actual Time 6:32 AM PST 6:07 PM PST
Civil Twilight 6:06 AM PST 6:34 PM PST
Nautical Twilight 5:36 AM PST 7:04 PM PST
Astronomical Twilight 5:05 AM PST 7:34 PM PST
Moon 2:42 AM PST (3/6) 1:00 PM PST (3/6)
Length of Visible Light 12h 27m
Length of Day
11h 35m
Waning Crescent, 29% of the Moon is Illuminated
Mar 6
Waning Crescent
Mar 11
New
Mar 19
First Quarter
Mar 27
Full
Apr 2
Last Quarter

Hourly Weather History & Observations

Time (PST) Temp. Windchill Dew Point Humidity Pressure Visibility Wind Dir Wind Speed Gust Speed Precip Events Conditions
12:00 AM 53.6 °F - 50.0 °F 88% 29.87 in 10.0 mi SSE 27.6 mph - 0.00 in Rain Light Rain
12:27 AM 53.6 °F - 50.0 °F 88% 29.89 in 9.0 mi SSE 25.3 mph 31.1 mph 0.00 in Rain Light Rain
12:53 AM 53.1 °F - 51.1 °F 93% 29.88 in 10.0 mi SSE 26.5 mph - 0.00 in Rain Light Rain
1:53 AM 53.1 °F - 53.1 °F 100% 29.89 in 7.0 mi SSE 21.9 mph 29.9 mph 0.05 in Rain Light Rain
2:50 AM 55.4 °F - 51.8 °F 88% 29.91 in 10.0 mi SSW 23.0 mph 31.1 mph 0.00 in   Overcast
2:53 AM 55.9 °F - 51.1 °F 84% 29.91 in 10.0 mi SW 23.0 mph 31.1 mph 0.00 in   Overcast
3:53 AM 55.9 °F - 51.1 °F 84% 29.92 in 10.0 mi SW 23.0 mph 33.4 mph 0.01 in   Mostly Cloudy
4:53 AM 54.0 °F - 48.0 °F 80% 29.95 in 10.0 mi WSW 25.3 mph 32.2 mph 0.00 in   Mostly Cloudy
5:53 AM 53.1 °F - 46.9 °F 80% 29.98 in 10.0 mi WSW 16.1 mph 26.5 mph N/A   Partly Cloudy
6:23 AM 53.6 °F - 48.2 °F 82% 29.99 in 10.0 mi WSW 13.8 mph - N/A   Mostly Cloudy
6:35 AM 53.6 °F - 48.2 °F 82% 30.00 in 10.0 mi WSW 11.5 mph - N/A   Mostly Cloudy
6:42 AM 53.6 °F - 48.2 °F 82% 30.00 in 10.0 mi WSW 13.8 mph - N/A   Mostly Cloudy
6:53 AM 53.1 °F - 48.0 °F 83% 30.01 in 10.0 mi SW 11.5 mph - N/A   Overcast
6:56 AM 53.6 °F - 48.2 °F 82% 30.01 in 10.0 mi SW 12.7 mph - N/A   Overcast
7:53 AM 54.0 °F - 48.0 °F 80% 30.04 in 10.0 mi SSW 9.2 mph - N/A   Overcast
8:53 AM 55.9 °F - 46.9 °F 72% 30.06 in 10.0 mi SSW 10.4 mph - N/A   Mostly Cloudy
9:53 AM 55.9 °F - 45.0 °F 67% 30.07 in 10.0 mi SW 11.5 mph - N/A   Mostly Cloudy
10:53 AM 57.0 °F - 44.1 °F 62% 30.09 in 10.0 mi SW 12.7 mph - N/A   Mostly Cloudy
11:53 AM 57.0 °F - 43.0 °F 59% 30.10 in 10.0 mi SW 10.4 mph - N/A   Mostly Cloudy
12:53 PM 57.0 °F - 42.1 °F 57% 30.09 in 10.0 mi WSW 9.2 mph - N/A   Mostly Cloudy
1:53 PM 57.9 °F - 42.1 °F 56% 30.08 in 10.0 mi WSW 11.5 mph - N/A   Overcast
2:53 PM 57.9 °F - 42.1 °F 56% 30.07 in 10.0 mi West 11.5 mph - N/A   Overcast
3:53 PM 57.0 °F - 42.1 °F 57% 30.07 in 10.0 mi West 9.2 mph - N/A   Mostly Cloudy
4:53 PM 55.9 °F - 41.0 °F 57% 30.06 in 10.0 mi West 8.1 mph - N/A   Mostly Cloudy
5:53 PM 55.0 °F - 39.9 °F 57% 30.05 in 10.0 mi West 8.1 mph - N/A   Mostly Cloudy
6:53 PM 54.0 °F - 45.0 °F 72% 30.05 in 10.0 mi West 11.5 mph - N/A   Mostly Cloudy
7:53 PM 53.1 °F - 45.0 °F 74% 30.05 in 10.0 mi WSW 8.1 mph - N/A   Mostly Cloudy
8:53 PM 52.0 °F - 45.0 °F 77% 30.05 in 10.0 mi West 6.9 mph - N/A   Scattered Clouds
9:53 PM 51.1 °F - 45.0 °F 80% 30.04 in 10.0 mi WSW 4.6 mph - N/A   Scattered Clouds
10:53 PM 46.0 °F 44.8 °F 42.1 °F 86% 30.03 in 10.0 mi ENE 3.5 mph - N/A   Scattered Clouds
11:53 PM 45.0 °F 42.6 °F 43.0 °F 93% 30.02 in 10.0 mi ENE 4.6 mph - N/A   Partly Cloudy